Location: Clinton NY
(43.0598°N, 75.3602°W)
Time: 14:42:49
(UTC-04:00)

ISS - All Passes

Search period start: 21 May 2018 00:00
Search period end: 31 May 2018 00:00
Orbit: 402 x 407 km, 51.6° (Epoch: 22 May)

Date Brightness Start Highest point End Pass type
(mag) Time Alt. Az. Time Alt. Az. Time Alt. Az.
21 May - 00:57:56 10° NW 01:00:18 18° N 01:02:39 10° NE visible
21 May - 02:34:48 10° NW 02:37:34 24° NNE 02:40:20 10° ENE visible
21 May - 04:11:04 10° WNW 04:14:19 77° SW 04:17:35 10° SE visible
21 May - 20:52:17 10° S 20:54:40 19° SE 20:57:03 10° E visible
21 May - 22:27:39 10° WSW 22:30:52 57° NNW 22:34:07 10° NE visible
22 May - 00:05:20 10° WNW 00:07:52 20° N 00:10:22 10° NE visible
22 May - 01:42:39 10° NW 01:45:10 20° N 01:47:42 10° ENE visible
22 May - 03:18:54 10° NW 03:22:08 60° NNE 03:25:22 10° ESE visible
22 May - 04:56:02 10° W 04:58:20 18° SW 05:00:36 10° S visible
22 May - 20:02:28 10° SE 20:02:42 10° SE 20:02:57 10° SE daylight
22 May - 21:35:24 10° SW 21:38:40 81° SE 21:41:57 10° ENE visible
22 May - 23:12:42 10° WNW 23:15:27 24° NNW 23:18:12 10° NE visible
23 May - 00:50:21 10° NW 00:52:44 18° N 00:55:06 10° NE visible
23 May - 02:26:46 10° NW 02:29:51 37° NNE 02:32:56 10° E visible
23 May - 04:03:20 10° WNW 04:06:18 32° SW 04:09:15 10° SSE visible
23 May - 20:43:24 10° SSW 20:46:31 43° SE 20:49:39 10° ENE daylight
23 May - 22:20:05 10° W 22:23:04 32° NNW 22:26:04 10° NE visible
23 May - 23:57:55 10° NW 00:00:16 18° N 00:02:36 10° NE visible
24 May - 01:34:39 10° NW 01:37:30 27° NNE 01:40:21 10° E visible
24 May - 03:10:57 10° WNW 03:14:11 61° SW 03:17:24 10° SE visible
24 May - 19:51:47 10° S 19:54:27 23° SE 19:57:07 10° E daylight
24 May - 21:27:34 10° WSW 21:30:44 48° NNW 21:33:56 10° NE visible
24 May - 23:05:20 10° NW 23:07:47 19° N 23:10:14 10° NE visible
25 May - 00:42:28 10° NW 00:45:06 21° NNE 00:47:42 10° ENE visible
25 May - 02:18:43 10° NW 02:21:59 73° NNE 02:25:14 10° ESE visible
25 May - 03:56:14 10° W 03:58:05 14° SW 03:59:55 10° SSW night (unlit)
25 May - 19:00:53 10° SSE 19:02:25 13° SE 19:03:57 10° ESE daylight
25 May - 20:35:12 10° WSW 20:38:28 82° NNW 20:41:45 10° NE daylight
25 May - 22:12:40 10° WNW 22:15:19 22° NNW 22:17:59 10° NE visible
25 May - 23:50:12 10° NW 23:52:37 19° N 23:55:02 10° NE visible
26 May - 01:26:33 10° NW 01:29:41 44° NNE 01:32:50 10° E visible
26 May - 03:03:16 10° WNW 03:06:03 26° SW 03:08:49 10° SSE night (unlit)
26 May - 19:43:03 10° SW 19:46:15 54° SE 19:49:28 10° ENE daylight
26 May - 21:19:59 10° W 21:22:53 28° NNW 21:25:48 10° NE visible
26 May - 22:57:47 10° NW 23:00:07 18° N 23:02:27 10° NE visible
27 May - 00:34:23 10° NW 00:37:20 30° NNE 00:40:15 10° E visible
27 May - 02:10:45 10° WNW 02:13:55 48° SW 02:17:04 10° SE visible
27 May - 18:51:14 10° SSW 18:54:07 29° SE 18:56:59 10° ENE daylight
27 May - 20:27:23 10° W 20:30:30 41° NNW 20:33:38 10° NE daylight
27 May - 22:05:12 10° NW 22:07:36 18° N 22:10:00 10° NE visible
27 May - 23:42:11 10° NW 23:44:53 23° NNE 23:47:35 10° ENE visible
28 May - 01:18:25 10° WNW 01:21:42 89° NNE 01:24:58 10° SE visible
28 May - 02:56:34 10° WSW 02:57:43 11° SW 02:58:51 10° SSW night (unlit)
28 May - 17:59:56 10° S 18:02:01 16° SE 18:04:06 10° E daylight
28 May - 19:34:54 10° WSW 19:38:10 67° NNW 19:41:26 10° NE daylight
28 May - 21:12:31 10° WNW 21:15:05 21° NNW 21:17:40 10° NE visible
28 May - 22:49:55 10° NW 22:52:23 19° N 22:54:52 10° ENE visible
29 May - 00:26:11 10° NW 00:29:24 52° NNE 00:32:36 10° ESE visible
29 May - 02:03:07 10° W 02:05:40 21° SW 02:08:12 10° S night (unlit)
29 May - 18:42:38 10° SW 18:45:53 68° SE 18:49:08 10° ENE daylight
29 May - 20:19:47 10° WNW 20:22:36 26° NNW 20:25:25 10° NE daylight
29 May - 21:57:30 10° NW 21:59:51 18° N 22:02:12 10° NE visible
29 May - 23:33:59 10° NW 23:37:01 34° NNE 23:40:02 10° E visible
30 May - 01:10:27 10° WNW 01:13:31 38° SW 01:16:35 10° SSE visible
30 May - 17:50:38 10° SSW 17:53:40 35° SE 17:56:42 10° ENE daylight
30 May - 19:27:06 10° W 19:30:09 35° NNW 19:33:13 10° NE daylight
30 May - 21:04:56 10° NW 21:07:17 18° N 21:09:39 10° NE visible
30 May - 22:41:47 10° NW 22:44:34 25° NNE 22:47:20 10° ENE visible
